#timestamp,LO_Frequency,Hit,StdDev 
1515279615.6,286047004.3,N
1515279635.4,286047001.4,N
1515279655.2,286047001.4,N
1515279675.1,286047003.2,N
1515279676.0,286047003.2,N
1515279695.8,286047005.8,N
1515279715.7,286047006.0,N
1515279735.5,286047003.8,N
1515279755.3,286047001.4,N
1515279775.2,286047001.9,N
1515279795.0,286047003.3,N
1515279795.9,286047003.3,N
1515279815.8,286047004.4,N
1515279835.6,286047002.5,N
1515279855.4,286047001.7,N
1515279875.3,286047016.4,Y
1515279895.1,286047019.8,P
1515279915.8,286047019.5,N
1515279935.7,286047016.6,N
1515279955.5,286047014.0,N
1515279975.3,286047009.5,N
1515279995.2,286047009.2,N
1515280015.0,286047007.3,N
1515280015.9,286047007.3,N
1515280035.8,286047005.4,N
1515280055.6,286047006.0,N
1515280075.5,286047003.0,N
1515280095.3,286047006.0,N
1515280115.1,286047004.3,N
1515280135.9,286047002.2,N
1515280155.7,286047000.2,N
1515280175.5,286047000.5,N
1515280195.4,286047000.3,N
1515280215.2,286047000.5,N
1515280235.1,286046998.3,N
1515280236.0,286046998.3,N
1515280255.8,286046999.9,N
1515280275.6,286047002.3,N
1515280295.5,286047000.1,N
1515280315.3,286046998.3,N
1515280335.1,286046999.3,N
1515280355.9,286046996.5,N
1515280375.7,286046995.0,N
1515280395.6,286046997.6,N
1515280415.4,286046997.4,N
1515280435.2,286046998.8,N
1515280455.1,286046998.5,N
1515280456.0,286046998.5,N
1515280475.8,286046998.8,N
1515280495.7,286047000.5,N
1515280515.5,286047006.0,N
1515280535.3,286047001.2,N
1515280555.2,286046997.5,N
1515280575.0,286047000.5,N
1515280575.9,286047000.5,N
1515280595.7,286047002.3,N
1515280615.6,286047001.8,N
1515280635.4,286047003.2,N
1515280655.3,286047009.8,Y
1515280675.1,286047006.6,P
1515280676.0,286047006.6,N
1515280695.8,286047002.2,N
1515280715.7,286047000.8,N
1515280735.5,286046998.9,N
1515280755.4,286046996.7,N
1515280775.2,286046998.0,N
1515280795.0,286046993.7,N
1515280795.9,286046993.7,N
1515280815.8,286046994.2,N
1515280835.6,286046994.0,N
1515280855.4,286046994.8,N
1515280875.3,286046991.9,N
1515280895.1,286046992.6,N
1515280915.9,286046992.7,N
1515280935.7,286046989.0,N
1515280955.5,286046988.6,N
1515280975.4,286046991.2,N
1515280995.2,286046989.1,N
1515281015.0,286046989.1,N
1515281015.9,286046989.1,N
1515281035.8,286046988.6,N
1515281055.6,286046986.9,N
1515281075.5,286046987.0,N
1515281095.3,286046988.1,N
1515281115.1,286046985.6,N
1515281135.9,286046985.9,N
1515281155.7,286046985.4,N
1515281175.6,286046984.5,N
1515281195.4,286046986.8,N
1515281215.2,286046985.6,N
1515281235.1,286046985.9,N
1515281236.0,286046985.9,N
1515281255.8,286046988.4,N
1515281275.7,286046988.3,N
1515281295.5,286046986.1,Y
1515281315.3,286046994.9,P
1515281335.2,286046996.7,N
1515281355.0,286046996.9,N
1515281355.9,286046996.9,N
1515281375.7,286046997.8,N
1515281395.6,286046996.7,N
1515281415.4,286046999.4,N
1515281435.3,286046998.5,N
1515281455.1,286046998.8,N
1515281456.0,286046998.8,N
1515281475.8,286046998.1,N
1515281495.7,286047000.4,N
1515281515.5,286047001.2,N
1515281535.3,286047000.5,N
1515281555.2,286047000.8,N
1515281575.0,286046998.7,N
1515281575.9,286046998.7,N
1515281595.8,286047000.2,N
1515281615.6,286047002.8,N
1515281635.4,286047001.9,N
1515281655.3,286047002.2,N
1515281675.1,286047002.4,N
1515281695.8,286047001.3,N
1515281715.7,286047003.4,N
1515281735.5,286047003.9,N
1515281755.4,286047002.9,N
1515281775.2,286047003.1,N
1515281795.0,286047003.0,N
1515281795.9,286047003.0,N
1515281815.8,286047005.3,N
1515281835.6,286047003.3,N
1515281855.4,286047004.0,N
1515281875.3,286047003.0,N
1515281895.1,286047003.7,N
1515281915.9,286047003.1,N
1515281935.7,286047002.9,N
1515281955.5,286047005.0,N
1515281975.4,286047007.5,Y
1515281995.2,286047003.3,P
1515282015.1,286047002.9,P
1515282016.0,286047002.9,P
1515282035.8,286047005.8,Y
1515282055.6,286047003.9,P
1515282075.5,286047002.1,P
1515282095.3,286047002.2,N
1515282115.2,286047002.5,Y
1515282135.9,286046999.5,P
1515282155.7,286046999.5,N
1515282175.6,286046999.1,N
1515282195.4,286046999.0,N
1515282215.2,286046996.9,N
1515282235.1,286046999.3,N
1515282236.0,286046999.3,N
1515282255.8,286047011.9,Y
1515282275.7,286047000.7,P
1515282295.5,286047001.1,N
1515282315.3,286047000.1,N
1515282335.2,286047004.0,Y
1515282355.0,286047004.2,P
1515282355.9,286047004.2,N
1515282375.8,286047001.4,N
1515282395.6,286047001.9,N
1515282415.4,286047001.7,N
1515282435.3,286047000.6,N
1515282455.1,286047002.6,N
1515282475.8,286047002.3,N
1515282495.7,286047002.0,N
1515282515.5,286047002.0,N
1515282535.4,286047000.6,N
1515282555.2,286047000.2,N
1515282575.0,286047002.0,N
1515282575.9,286047002.0,N
1515282595.8,286047001.7,N
1515282615.6,286047001.4,N
1515282635.4,286047001.7,N
1515282655.3,286047003.1,N
1515282675.1,286047004.3,Y
1515282695.9,286047002.5,P
1515282715.7,286047000.6,N
1515282735.5,286046999.9,N
1515282755.4,286047000.8,N
1515282775.2,286047000.2,N
1515282795.0,286047000.6,N
1515282796.0,286047000.6,N
1515282815.8,286047000.3,N
1515282835.6,286047001.2,N
1515282855.5,286046999.7,N
1515282875.3,286047001.3,N
1515282895.1,286047000.1,N
1515282915.9,286047000.6,N
1515282935.7,286047000.2,N
1515282955.6,286047000.7,N
1515282975.4,286047001.2,N
1515282995.2,286046999.7,N
1515283015.1,286046998.2,N
1515283016.0,286046998.2,N
1515283035.8,286047000.8,N
1515283055.6,286046998.3,N
1515283075.5,286046998.9,N
1515283095.3,286046996.6,Y
1515283115.2,286046999.2,P
1515283135.9,286046998.8,N
1515283155.7,286047001.2,N
1515283175.6,286047001.2,N
1515283195.4,286046999.9,N
